Flag for France Weather past 2 weeks in Bastia, Corsica, France

Now
50 °F

Clear.


Feels Like: 48 °F
Forecast: 51 / 67 °F
Wind: 5 mph from West

Location: Bastia Airport

Current Time: Apr 21, 2015 at 7:35:58 AM

Latest Report: Apr 21, 2015 at 7:00 AM


Visibility: 10 mi

Pressure: 30.18 "Hg

Humidity: 54%

Dew point: 34 °F

Location of BastiaLocation

Historic Weather in Bastia — Graph

°F

Bastia temperature yesterday

Maximum temperature yesterday: 63 °F (at 12:00 PM)
Minimum temperature yesterday: 46 °F (at 11:30 PM)
Average temperature yesterday: 56 °F

Past Weeks' High & Low Weather Summary

 TemperatureHumidityPressure
High68 °F (Apr 13, 10:30 AM)100% (Apr 11, 11:30 PM)30.42 "Hg (Apr 11, 11:30 PM)
Low41 °F (Apr 7, 4:00 AM)24% (Apr 8, 12:30 PM)29.89 "Hg (Apr 18, 5:00 PM)
Average56 °F73%30.21 "Hg
* Reported Apr 6 6:30 AM — Apr 21 6:30 AM, Bastia, Weather by CustomWeather, © 2015

Note: Actual official high and low records may vary slightly from our data, if they occured in-between our weather recording intervals... More about our weather records

Advertising

Bastia weather history for previous 24 hours

 ConditionsComfort  
Time TempWeatherWind HumidityBarometerVisibility
6:30 AM
Tue, Apr 21
48 °FClear.5 mph58%30.18 "Hg10 mi
6:00 AM48 °FClear.5 mph58%30.15 "Hg10 mi
5:30 AM48 °FClear.7 mph58%30.15 "Hg10 mi
4:30 AM48 °FClear.5 mph54%30.15 "Hg10 mi
4:00 AM48 °FClear.6 mph54%30.15 "HgN/A
3:30 AM48 °FClear.3 mph54%30.15 "HgN/A
3:00 AM48 °FClear.5 mph58%30.15 "HgN/A
2:30 AM48 °FClear.7 mph54%30.15 "HgN/A
2:00 AM52 °FClear.6 mph44%30.12 "HgN/A
1:30 AM55 °FClear.13 mph33%30.12 "HgN/A
1:00 AM54 °FClear.10 mph41%30.12 "Hg10 mi
12:30 AM54 °FPassing clouds.9 mph41%30.12 "HgN/A
12:00 AM52 °FClear.10 mph47%30.12 "Hg10 mi
11:30 PM
Mon, Apr 20
46 °FClear.3 mph66%30.12 "Hg10 mi
11:00 PM48 °FClear.2 mph66%30.09 "Hg10 mi
10:30 PM52 °FClear.7 mph47%30.09 "Hg10 mi
10:00 PM52 °FPassing clouds.7 mph67%30.09 "HgN/A
9:30 PM52 °FClear.6 mph72%30.09 "Hg10 mi
9:00 PM52 °FPassing clouds.3 mph72%30.07 "HgN/A
8:30 PM54 °FPassing clouds.No wind63%30.07 "HgN/A
8:00 PM57 °FPassing clouds.3 mph51%30.04 "HgN/A
7:00 PM59 °FScattered clouds.6 mph51%30.04 "HgN/A
6:30 PM61 °FPassing clouds.3 mph48%30.04 "HgN/A
6:00 PM63 °FPassing clouds.3 mph45%30.07 "HgN/A
5:30 PM63 °FPassing clouds.5 mph45%30.07 "HgN/A
5:00 PM63 °FPassing clouds.7 mph45%30.07 "HgN/A
4:30 PM63 °FPassing clouds.6 mph49%30.07 "HgN/A
4:00 PM63 °FPassing clouds.7 mph45%30.07 "HgN/A
3:30 PM63 °FPassing clouds.8 mph52%30.09 "HgN/A
3:00 PM63 °FPassing clouds.8 mph52%30.09 "HgN/A
2:30 PM63 °FPassing clouds.8 mph52%30.09 "HgN/A
2:00 PM63 °FPassing clouds.8 mph52%30.09 "HgN/A
1:30 PM63 °FPassing clouds.7 mph45%30.09 "HgN/A
1:00 PM63 °FPassing clouds.7 mph49%30.09 "HgN/A
12:30 PM63 °FPassing clouds.8 mph49%30.09 "HgN/A
12:00 PM63 °FPassing clouds.9 mph45%30.09 "HgN/A
11:30 AM61 °FPassing clouds.9 mph52%30.09 "HgN/A
11:00 AM61 °FPassing clouds.10 mph52%30.09 "HgN/A
10:30 AM61 °FPassing clouds.10 mph55%30.09 "HgN/A
10:00 AM61 °FPassing clouds.9 mph59%30.09 "HgN/A
9:47 AM61 °FPassing clouds.9 mph59%30.09 "HgN/A
9:30 AM59 °FPassing clouds.8 mph59%30.09 "HgN/A
9:00 AM59 °FPassing clouds.5 mph63%30.09 "HgN/A
8:30 AM57 °FPassing clouds.2 mph77%30.09 "HgN/A
8:00 AM55 °FPassing clouds.3 mph82%30.09 "HgN/A
7:30 AM54 °FPassing clouds.3 mph88%30.09 "HgN/A
7:00 AM48 °FPassing clouds.2 mph94%30.07 "HgN/A
Weather by CustomWeather, © 2015

See weather overviewHow to use our weather pages